{"data":{"norad_id":61183,"intl_designator":"2024-167B","name":"GSAT0226 (GALILEO 31)","alt_names":[],"object_type":"PAYLOAD","status":"ACTIVE","operator":null,"country":"ESA","launch_date":"2024-09-17","launch_site_code":"AFETR","launch_vehicle":null,"mission":null,"orbit_class":"UNKNOWN","rcs_meters":null,"size_class":null,"mass_kg":null,"dimensions":null,"purposes":["earth_obs","nav"],"wikipedia_slug":null,"has_3d_model":false,"image_url":null,"decayed_at":null,"tle_current":{"epoch":"2026-05-22T06:45:14.261184Z","epoch_age_seconds":313531,"freshness":"STALE","line1":"1 61183U 24167B   26142.28141506 -.00000010  00000+0  00000+0 0  9991","line2":"2 61183  55.1903 222.0316 0002380 215.3262 145.6898  1.70474365 10418","mean_motion":1.70474365,"eccentricity":0.000238,"inclination_deg":55.1903,"raan_deg":222.0316,"arg_perigee_deg":215.3262,"mean_anomaly_deg":145.6898,"bstar":0,"rev_number":1041,"period_min":844.7017825818,"perigee_km":23215.095940243,"apogee_km":23229.185672479,"semimajor_km":29600.277806361,"source":"CELESTRAK","updated_at":"2026-05-25T13:38:24.062652Z"}}}